RH
88 86 81 76 70 64 59 54 52 53 54 53 53 53 53 53 53 52 51 50 49 48 48 49 49 47 48 57 68 72 74 84 92 89 85 84 83 82 82 81 82 85 85 82 81 82 81 79 77 77 78 78 79 81 85 89 92 93 95 97 98 97 96
84 86 85 81 76 72 65 59 58 57 57 57 58 57 57 57 56 55 53 53 52 52 52 52 51 48 52 66 79 80 83 89 88 86 87 85 83 82 81 80 80 80 82 83 80 79 79 78 78 82 82 80 79 81 81 83 87 90 93 97 98 97 95
79 81 82 80 78 75 71 66 64 62 63 65 64 62 61 60 59 58 57 56 56 55 53 52 49 45 51 74 89 86 85 89 87 87 90 88 85 84 83 81 79 79 82 83 82 80 78 75 75 81 87 84 81 83 84 85 90 94 97 99 99 99 97
81 81 80 80 79 77 75 73 71 69 69 69 70 69 66 65 63 60 58 57 54 52 50 50 49 44 51 80 99 93 87 88 88 89 89 87 86 83 82 82 82 82 81 81 83 81 78 76 73 77 85 88 85 84 86 89 93 98 99 99 99 99 98
82 83 83 82 81 80 78 77 77 77 77 77 76 75 73 70 66 60 58 56 53 53 52 54 57 57 64 87 101 97 91 88 92 96 93 91 91 87 85 87 84 81 81 82 84 82 78 78 77 76 81 89 92 91 89 92 96 97 99 100 100 99 99
82 85 87 87 86 85 84 84 84 84 84 83 81 77 74 71 68 64 60 58 56 57 61 66 71 75 84 95 101 99 94 91 96 100 93 93 96 92 92 93 83 77 81 83 82 80 80 82 84 86 88 92 97 96 93 95 97 98 99 100 100 100 100
81 82 84 86 87 89 88 88 88 87 85 84 81 78 74 69 67 65 63 65 68 74 82 85 84 88 96 100 101 101 97 96 101 99 93 94 97 97 98 92 78 74 78 77 74 76 79 82 88 94 96 97 100 99 97 97 98 99 100 100 100 100 100
83 82 83 84 85 87 89 88 87 87 87 84 79 74 70 67 68 70 75 83 88 94 97 92 89 95 101 100 100 100 99 99 99 97 97 99 99 100 101 89 75 72 71 67 67 70 75 81 88 92 93 96 99 99 99 98 98 100 100 99 100 100 100
88 87 87 86 86 87 90 89 86 84 83 80 77 75 73 75 80 86 92 97 98 101 101 98 98 99 99 101 100 99 101 100 93 91 97 101 100 100 101 94 83 74 66 63 65 68 73 79 83 89 95 98 98 98 99 98 98 100 101 100 100 100 100
93 92 90 91 91 90 89 87 83 79 80 83 88 91 91 93 96 98 99 99 100 100 96 98 99 89 86 97 101 97 100 101 96 93 92 95 99 100 100 99 95 86 77 72 70 70 77 80 81 90 100 100 98 98 100 100 98 99 100 99 99 99 100
96 93 90 91 92 89 88 87 83 82 89 96 100 100 100 100 100 100 101 100 101 100 93 94 97 87 85 96 99 95 99 101 100 95 89 87 90 92 97 101 101 97 93 88 81 77 82 85 85 94 102 99 97 98 99 100 100 99 100 97 93 93 95
94 92 89 90 92 91 91 90 85 85 95 103 101 99 100 101 99 99 99 97 99 101 93 90 97 97 94 99 100 98 101 100 97 94 89 85 82 80 85 93 98 100 100 98 93 87 89 93 92 96 101 97 95 97 99 100 100 99 100 98 93 93 93
84 86 87 90 95 94 91 89 83 82 93 102 101 100 100 100 99 98 98 98 99 98 91 87 96 100 96 99 103 100 97 95 95 95 91 85 80 74 74 82 92 98 100 101 99 96 98 100 98 99 100 96 94 97 99 100 98 99 102 99 97 98 92
87 89 90 92 94 92 88 86 79 78 92 102 101 100 100 100 101 100 99 98 92 89 90 92 98 101 98 100 102 97 91 88 91 95 92 85 79 74 73 82 91 95 99 101 100 100 100 100 100 101 99 95 95 96 98 98 96 97 99 97 95 96 91
97 94 90 88 89 87 83 78 73 79 97 104 99 99 101 100 100 101 98 93 87 87 93 97 99 101 101 100 98 93 90 88 91 97 92 84 80 75 72 79 87 93 99 101 100 100 100 100 100 100 100 98 94 93 95 96 93 93 96 97 95 94 89
101 100 93 85 81 80 79 74 69 78 98 104 99 99 101 100 100 101 98 94 93 96 99 100 101 101 100 98 95 92 91 89 92 98 93 84 82 78 72 75 86 97 101 99 101 100 98 100 100 99 101 99 91 88 87 85 88 90 90 91 89 86 84
103 102 95 84 77 80 83 76 69 78 95 103 100 99 100 100 100 99 96 95 98 100 101 101 100 98 97 95 90 92 97 96 93 95 93 86 82 78 73 72 84 98 101 98 100 101 99 101 100 97 97 91 84 81 75 73 80 82 78 77 73 70 76
102 100 98 91 82 85 90 85 79 81 90 99 102 100 100 101 100 96 95 97 100 101 102 100 97 95 94 91 87 89 95 99 98 94 91 86 79 74 72 71 78 92 101 101 100 98 97 96 93 89 84 76 71 67 58 58 67 71 70 68 61 57 66
103 100 99 94 86 87 93 93 87 81 85 96 100 98 100 101 99 98 100 99 98 98 98 98 94 90 88 88 91 95 96 98 101 94 85 80 74 69 67 65 65 72 82 89 94 94 93 89 83 77 69 60 54 48 44 47 53 59 67 66 60 54 56
99 94 91 88 87 90 95 96 89 81 89 100 95 89 99 104 99 100 102 97 93 90 88 87 83 80 77 74 79 94 101 100 96 89 81 76 69 59 51 47 47 49 51 56 65 71 73 69 62 55 49 44 40 37 39 42 41 47 59 63 64 60 54
95 93 93 91 91 93 96 98 91 84 93 103 91 80 90 100 100 99 96 90 85 79 75 76 75 72 65 56 62 86 103 102 95 84 74 74 75 65 47 35 35 37 35 35 40 45 46 44 42 40 36 36 38 37 38 39 35 35 42 50 60 65 65
94 97 99 98 97 96 96 97 95 89 91 101 99 88 87 94 97 93 83 77 74 73 76 83 84 77 65 55 65 88 102 102 96 86 81 90 96 82 55 37 33 34 36 41 44 45 44 41 43 46 42 39 43 42 37 38 37 35 34 37 45 55 60
96 97 99 97 98 99 98 95 95 92 89 97 104 99 95 98 96 83 73 71 74 80 89 94 93 89 83 79 86 99 102 101 102 99 96 95 85 65 45 36 36 38 43 50 53 54 56 55 56 62 58 49 49 48 43 41 40 37 36 34 33 36 39
94 94 94 92 92 95 99 98 96 92 88 93 100 100 101 103 94 77 69 70 78 91 101 100 97 99 99 98 100 101 96 92 93 91 81 66 53 44 42 44 46 46 48 54 59 63 68 67 63 63 59 49 46 49 49 46 42 36 34 34 32 31 32
91 91 91 89 88 90 94 98 98 93 87 86 89 94 100 99 86 74 71 70 78 93 100 98 98 100 99 98 95 91 85 80 75 67 56 47 45 45 47 50 54 55 56 60 64 69 74 73 62 54 49 43 42 47 50 53 53 45 37 39 41 37 34
91 90 89 88 87 89 92 96 98 96 90 84 82 85 90 88 79 74 69 66 74 91 97 97 100 100 99 98 93 86 82 76 67 58 50 45 46 48 50 54 58 61 64 68 70 71 75 72 61 49 45 43 42 43 44 48 58 60 52 52 59 57 47
90 89 89 86 84 86 90 92 90 89 88 87 86 86 86 82 80 78 69 61 72 93 100 99 100 99 96 94 90 83 76 68 59 52 47 45 47 49 51 52 53 55 59 64 68 68 65 62 57 53 50 47 44 43 40 39 46 54 50 47 55 62 59
89 89 87 84 82 82 83 82 82 85 87 87 89 92 88 83 84 82 65 50 60 88 102 99 95 92 87 83 77 69 61 55 50 46 46 48 49 49 49 49 49 49 50 52 57 60 60 61 60 56 53 50 45 42 41 38 39 43 43 42 48 54 56
93 90 87 85 82 79 78 79 78 78 78 77 80 84 85 88 88 72 46 32 39 63 85 89 82 79 75 67 59 54 51 51 51 52 53 51 48 50 54 54 55 56 55 56 61 64 65 67 65 59 59 59 53 44 40 39 39 38 40 46 54 56 58
94 86 84 87 83 78 83 85 76 70 75 82 84 80 78 86 86 62 41 40 41 41 53 63 61 59 58 55 53 55 58 61 64 68 68 61 57 59 60 57 59 61 58 56 61 64 65 67 68 67 68 69 66 59 53 51 49 47 50 58 62 63 67
98 90 90 95 94 90 90 81 66 70 88 98 99 92 82 82 79 61 53 63 60 44 41 47 49 49 50 51 54 59 60 63 69 72 71 68 66 67 65 62 63 63 59 57 59 60 62 66 70 72 72 74 75 73 71 69 66 63 65 70 71 71 75
101 98 95 95 94 90 85 75 71 82 95 95 96 99 96 90 80 64 61 74 74 57 46 44 45 49 51 52 55 57 57 61 68 68 67 68 68 68 70 70 64 57 60 67 68 66 67 70 71 73 73 72 73 74 76 77 75 74 74 76 77 78 80
101 100 98 96 95 93 93 93 92 93 94 95 99 102 101 100 92 75 70 79 79 64 51 45 46 49 50 52 56 54 52 57 62 62 64 67 70 71 71 68 61 57 61 67 67 68 70 69 67 70 72 70 71 75 78 79 80 79 79 78 77 79 81
95 98 100 100 99 97 99 98 91 82 79 88 100 103 99 102 102 90 81 85 83 69 53 45 45 47 48 50 53 51 49 53 55 57 61 65 68 71 68 60 60 64 66 64 64 66 67 64 64 69 73 75 77 77 78 81 82 82 82 82 81 81 82
89 91 95 99 99 98 96 94 90 84 77 78 91 99 99 101 103 96 89 88 88 79 61 43 39 43 45 45 48 48 49 52 52 53 60 65 66 66 62 59 63 67 63 62 66 68 68 69 71 73 76 79 80 80 81 83 84 85 87 89 87 85 83
91 86 86 92 96 97 96 94 92 91 87 86 93 101 101 100 98 94 89 87 88 87 74 52 38 38 40 42 46 48 49 51 52 53 57 62 65 64 61 62 67 68 62 62 67 71 74 78 80 80 83 84 84 85 87 87 87 89 93 94 93 90 86
Wind_Speed
17 17 17 17 18 18 18 16 14 13 12 11 10 9 9 8 8 9 10 10 10 10 11 13 15 16 15 15 15 14 14 14 14 14 15 15 15 16 15 15 16 13 13 16 18 21 22 22 23 22 20 21 21 21 20 19 19 19 19 20 20 20 20
17 17 16 16 17 17 17 15 13 12 11 11 10 9 9 8 8 9 10 10 11 11 12 14 17 18 17 14 14 15 15 15 15 15 15 15 14 15 15 14 16 16 15 14 16 19 21 22 24 23 19 20 21 21 22 21 21 21 21 21 21 20 19
17 16 16 15 15 15 15 15 15 16 15 13 11 10 9 9 9 10 11 12 13 14 15 17 20 20 18 14 14 16 15 14 15 14 14 15 15 15 15 14 15 16 16 15 15 16 18 19 22 22 21 20 18 19 21 22 21 21 21 20 19 18 17
17 16 15 15 14 14 14 16 16 16 14 12 11 10 11 11 11 13 14 16 17 18 19 21 22 21 19 16 15 16 16 15 15 14 14 15 14 14 15 14 14 15 16 17 15 15 16 18 20 21 21 21 19 18 21 20 19 18 17 16 15 15 14
15 14 13 13 12 11 12 12 11 10 10 10 10 10 11 12 14 16 17 19 20 20 20 21 22 22 19 17 16 16 16 15 14 13 14 14 13 13 13 13 14 15 16 16 15 15 16 16 18 20 20 20 18 16 17 17 16 15 13 10 10 10 9
14 12 11 10 8 8 8 8 8 9 10 11 11 12 13 15 17 18 19 20 21 21 22 22 22 21 19 17 17 16 16 15 15 15 15 14 12 13 12 12 14 15 15 15 15 15 15 14 15 17 17 15 14 12 12 12 11 9 7 6 6 8 9
13 12 10 9 8 7 8 9 10 11 13 13 14 16 17 18 19 20 20 21 21 21 19 19 20 20 18 17 16 16 16 15 14 15 14 12 10 11 11 11 13 14 14 15 15 14 13 12 12 13 14 13 11 11 11 8 7 6 6 7 8 9 11
14 14 13 12 11 11 11 12 13 14 14 16 17 19 20 20 20 20 20 19 18 17 16 17 18 17 16 16 16 15 15 14 12 12 11 8 8 9 9 11 13 14 13 14 14 13 12 11 10 11 13 13 9 5 5 4 3 3 7 10 12 12 12
15 16 16 15 15 13 12 14 16 16 16 18 20 21 22 22 21 21 22 20 17 15 15 16 16 14 14 15 16 16 14 13 14 15 11 7 7 8 9 10 12 13 13 13 13 12 11 9 8 9 11 11 11 10 9 8 6 1 7 12 14 12 11
15 17 17 16 15 15 16 17 19 20 20 19 20 20 21 22 21 21 21 20 18 16 16 16 15 14 15 15 16 16 14 12 14 14 11 7 7 8 8 9 11 11 11 12 12 12 10 8 7 7 8 10 11 12 12 11 7 3 5 10 11 10 9
15 17 18 17 18 19 21 22 22 21 20 19 19 19 19 20 20 20 19 19 18 17 16 16 15 16 17 17 18 18 14 11 11 11 10 10 10 10 8 8 9 10 10 10 11 11 9 8 8 6 7 10 12 11 11 11 9 6 2 4 4 5 6
16 16 18 19 21 22 23 23 23 22 20 19 20 20 19 20 20 19 18 17 16 15 15 15 13 16 19 19 18 17 14 12 12 11 11 11 11 11 10 8 7 8 8 8 9 10 8 7 8 6 7 11 12 12 11 9 9 9 6 4 4 4 4
19 18 19 20 21 23 23 24 24 23 22 21 21 21 20 20 20 19 18 16 15 16 17 17 14 15 18 19 16 15 13 12 12 12 11 11 11 10 10 8 7 6 6 7 8 8 6 6 7 6 7 11 11 9 10 9 8 10 8 7 8 7 6
18 19 20 21 21 23 24 25 24 23 22 21 21 21 21 20 19 19 17 15 14 14 16 17 15 12 13 14 15 14 13 12 12 12 12 11 11 9 7 7 7 6 7 7 5 4 3 6 7 6 6 9 8 6 6 6 7 8 7 8 8 7 7
14 18 20 20 21 22 24 25 23 22 21 20 20 20 19 17 16 14 12 11 11 12 13 14 14 12 11 12 13 13 13 13 12 12 13 12 11 9 6 7 6 5 7 5 2 1 3 6 8 8 9 9 6 4 4 4 4 5 5 5 3 3 4
12 15 18 20 21 22 23 24 22 19 18 18 18 17 15 15 14 11 10 10 11 12 12 12 12 12 11 12 13 13 13 13 12 13 14 14 10 8 7 8 6 2 3 4 3 3 4 4 5 7 9 8 7 6 7 5 4 3 2 1 2 0 2
12 13 16 20 21 20 21 22 19 16 16 17 17 15 14 13 11 9 10 11 11 11 11 11 11 10 10 11 12 12 12 13 14 15 15 13 9 7 8 8 9 9 7 5 4 3 3 4 5 4 6 9 10 10 10 7 5 6 5 4 5 3 3
13 13 13 17 19 18 18 19 17 14 14 16 16 14 13 11 8 8 9 9 10 10 8 9 9 8 9 10 11 12 14 16 17 16 13 10 7 8 9 10 11 13 13 12 10 9 9 9 10 11 11 12 12 12 11 8 7 6 4 5 7 4 5
11 11 12 14 16 16 15 16 16 12 11 15 16 14 13 10 6 8 9 5 5 6 4 5 7 7 8 10 11 14 13 14 17 14 9 7 6 8 10 12 12 13 14 15 14 13 12 11 11 12 12 12 11 10 8 5 4 4 3 3 5 3 4
11 15 16 15 15 14 13 14 12 9 10 14 12 7 7 8 5 5 7 4 2 4 3 4 6 6 8 10 12 11 7 12 13 8 5 4 4 5 8 10 10 11 11 12 12 12 11 11 10 10 9 8 7 5 2 0 1 3 3 1 1 2 1
15 15 14 13 13 13 11 10 9 8 12 12 7 4 1 4 5 4 4 3 1 2 3 4 5 8 10 10 11 8 6 9 6 4 2 3 4 5 8 9 8 7 6 6 6 6 6 6 5 4 3 2 2 2 3 4 4 5 4 4 3 3 4
16 13 10 9 10 10 8 6 6 8 10 9 5 5 4 5 6 5 4 3 0 2 3 5 7 11 12 12 11 8 7 8 5 2 3 4 2 6 9 7 5 4 3 2 2 1 1 0 1 3 3 4 5 5 6 7 7 7 7 7 6 6 6
12 10 8 8 6 6 5 5 5 6 6 7 7 5 6 7 7 4 2 2 3 3 4 4 4 7 6 3 3 7 11 11 10 9 6 3 3 8 8 5 3 3 2 1 0 1 2 3 4 4 5 6 7 7 7 8 8 8 8 8 8 8 8
9 7 8 7 6 4 3 3 4 4 3 3 5 5 6 6 3 3 6 6 4 2 1 2 3 7 10 10 11 13 10 7 7 5 1 4 6 7 4 3 2 2 2 1 1 2 3 4 5 5 6 6 7 7 7 8 9 9 9 9 10 10 10
9 7 7 7 6 5 4 3 4 5 4 3 2 2 3 2 4 8 8 6 4 4 3 5 7 7 7 6 6 4 1 2 3 3 4 5 5 4 2 2 2 2 2 1 2 3 4 4 5 6 6 6 7 6 6 7 7 8 9 10 10 10 11
9 8 8 8 7 6 5 4 4 5 6 6 6 5 4 5 7 8 6 5 5 7 7 8 8 7 4 3 2 3 4 5 6 6 6 5 4 2 1 2 2 2 2 2 3 3 4 4 5 6 7 6 7 6 5 6 5 5 6 7 7 7 9
9 8 8 8 8 6 5 5 6 7 8 8 7 7 6 6 6 5 5 5 5 7 8 8 7 7 7 6 6 6 6 5 5 5 5 4 2 0 2 3 3 3 4 4 4 4 5 5 5 6 6 6 7 7 6 6 6 4 4 6 5 4 5
9 9 8 8 8 7 6 7 7 7 9 10 10 9 8 6 5 5 5 5 5 6 7 7 7 7 6 6 6 5 5 4 4 3 2 1 2 2 3 3 3 3 4 5 5 5 5 5 5 6 6 6 7 8 7 7 7 6 5 5 4 4 3
10 11 10 9 9 8 7 7 8 9 10 11 11 11 10 8 6 4 3 3 3 5 6 6 5 5 5 5 4 3 2 1 0 1 2 3 4 4 4 5 4 4 5 5 5 4 4 5 5 6 6 7 7 8 8 8 8 8 7 6 5 5 5
14 13 12 10 11 11 9 9 10 10 9 9 10 10 9 8 7 4 1 1 1 2 4 4 4 4 3 3 2 2 2 3 3 3 3 4 4 4 4 5 5 5 5 5 5 5 4 4 5 5 5 6 7 8 8 8 8 9 8 7 5 5 5
13 14 16 16 15 12 10 10 10 7 6 11 14 15 13 10 8 6 4 2 2 1 3 3 3 3 4 3 3 3 4 5 4 4 4 5 4 4 5 5 5 5 5 5 5 5 5 5 5 5 5 5 6 6 7 8 8 9 9 8 6 5 4
6 3 7 11 11 8 7 8 7 5 8 15 13 16 18 13 9 9 5 1 2 2 2 3 3 4 4 4 4 5 6 6 5 5 5 5 4 4 4 4 5 6 6 5 4 4 5 5 4 5 5 5 6 5 5 6 7 8 8 7 6 6 6
5 1 4 5 5 5 5 4 3 3 7 9 2 15 17 12 10 9 6 2 2 2 3 4 4 4 5 5 5 6 7 7 6 6 6 5 4 4 4 4 5 6 6 4 4 4 3 3 4 4 4 4 5 5 5 5 6 7 6 5 4 5 6
12 9 7 8 8 7 7 7 5 6 6 2 5 12 13 12 12 11 8 6 4 3 3 4 5 6 7 7 7 7 8 8 8 8 7 6 5 5 5 5 5 4 3 3 3 2 2 2 3 3 3 3 4 4 4 5 5 5 5 5 4 4 5
13 14 13 12 12 12 12 12 11 10 9 8 6 8 12 13 12 11 10 9 7 5 5 5 6 7 8 8 8 8 8 8 9 8 8 7 6 6 6 5 4 3 3 2 1 1 1 2 2 3 2 2 2 3 3 3 4 5 5 5 4 4 4
13 16 16 16 16 16 16 16 15 14 14 13 11 11 14 14 11 10 11 11 10 8 8 8 8 8 9 10 10 9 9 9 9 9 9 8 7 6 6 5 4 4 3 2 1 2 1 1 1 1 2 2 2 3 4 3 4 5 4 3 4 3 3
Wind_Direction
293 288 276 264 259 253 246 239 232 227 228 232 237 243 248 254 262 271 278 284 289 295 298 298 298 299 297 294 288 285 285 284 284 287 288 288 289 289 289 288 289 289 291 296 298 296 297 295 293 289 280 273 271 269 266 265 264 264 263 261 260 259 258
298 296 285 271 262 255 249 240 230 227 230 234 240 246 250 256 264 270 277 282 288 292 294 294 295 297 295 290 283 281 280 279 281 283 283 285 288 290 290 292 294 294 295 300 300 296 296 295 294 293 286 276 270 266 266 265 262 261 260 259 259 258 258
300 297 289 277 266 256 244 236 233 236 239 241 245 249 253 261 266 272 279 284 288 292 293 293 293 293 291 286 281 277 275 274 276 277 279 283 287 289 291 294 295 295 296 300 302 301 300 297 293 292 289 285 274 262 261 260 257 255 253 252 254 255 255
303 298 292 283 273 258 244 237 238 241 244 246 249 254 261 268 272 277 283 288 292 295 293 292 292 291 289 284 278 274 271 270 271 273 278 284 286 289 294 297 298 297 296 298 301 303 302 297 292 289 287 289 286 269 257 252 248 248 247 247 247 249 253
312 305 299 292 280 265 250 243 242 244 248 253 257 263 269 274 280 285 288 291 294 293 292 291 289 288 286 279 273 270 267 267 269 272 278 283 287 293 299 302 302 299 297 298 300 302 304 299 293 290 285 283 284 276 259 248 241 240 240 238 236 235 232
327 321 313 304 290 272 259 254 256 258 261 265 268 273 275 279 282 285 288 291 292 292 292 290 287 286 283 275 266 263 265 267 267 270 279 286 292 298 304 304 302 300 299 300 299 299 303 302 298 299 295 285 275 265 255 244 231 223 218 207 198 192 184
332 329 324 316 306 291 281 278 276 276 276 278 278 280 282 284 285 285 286 287 288 289 287 286 286 284 278 267 257 258 264 262 258 269 282 287 290 299 307 307 304 302 301 301 300 299 302 303 307 311 308 302 282 253 241 232 210 184 163 158 160 158 156
321 319 316 312 306 299 294 291 289 285 283 283 284 284 285 287 286 286 287 285 283 281 278 282 286 280 269 260 255 259 261 252 254 274 285 280 287 300 305 305 305 305 303 302 300 299 301 305 316 323 320 321 324 294 266 280 271 181 153 153 153 150 146
314 312 310 308 304 298 293 292 291 288 287 287 289 290 291 292 290 288 287 283 279 276 276 280 280 273 266 261 256 258 255 248 260 274 276 275 292 302 302 303 306 306 304 304 302 301 305 307 317 337 342 343 351 348 333 327 332 63 137 143 137 132 137
308 308 306 303 300 297 295 293 293 292 292 290 289 288 289 290 289 287 284 279 275 274 278 276 271 273 275 265 259 260 254 248 260 267 268 274 285 295 303 306 307 305 305 306 303 299 305 312 318 343 356 348 348 349 344 342 348 25 127 135 123 110 115
304 304 303 301 299 299 298 296 295 294 293 290 286 283 282 281 281 278 276 273 267 265 272 272 265 269 271 263 261 262 250 243 256 263 267 272 276 282 292 305 312 311 307 306 303 300 306 316 322 343 357 345 347 356 354 350 351 359 67 142 125 101 97
304 302 302 300 298 298 297 295 295 295 293 291 287 284 280 277 276 275 272 271 266 263 272 276 265 263 266 261 257 254 243 243 258 264 266 268 270 271 274 287 307 313 315 313 303 303 316 328 325 337 350 341 345 355 354 353 2 11 20 30 48 64 64
306 303 302 300 298 297 295 293 293 294 293 291 287 283 280 277 276 275 272 272 271 269 273 273 263 260 262 253 244 243 246 253 261 262 261 262 265 270 276 284 295 310 327 325 312 306 325 347 343 344 342 334 337 347 351 358 14 19 28 50 66 70 55
303 300 301 301 299 297 295 293 294 294 293 289 286 284 282 279 277 277 276 275 273 269 268 266 258 249 247 241 238 247 257 261 260 255 253 254 257 265 275 284 294 319 328 319 322 335 358 7 4 360 349 338 332 339 351 7 22 27 49 78 82 74 53
297 299 302 303 302 300 297 295 296 296 293 289 287 285 282 280 279 275 274 274 271 265 263 261 251 242 240 244 249 257 263 262 256 248 245 248 253 257 270 281 290 335 350 330 323 58 72 49 34 32 23 4 351 353 354 354 11 30 72 93 67 33 35
292 297 304 307 306 304 300 298 299 299 295 290 288 285 281 278 275 270 273 275 269 261 257 253 251 248 250 255 258 262 266 262 253 243 240 243 249 256 273 283 265 216 61 49 68 83 90 83 62 49 36 11 348 343 338 324 318 324 309 267 285 316 69
293 299 305 309 310 307 302 301 303 303 298 293 288 283 277 271 263 263 273 271 260 256 254 254 255 254 257 265 265 260 260 255 246 240 237 240 255 268 275 277 251 217 195 174 159 169 212 228 247 282 322 324 319 320 322 313 291 287 285 268 254 218 117
299 304 305 307 310 308 302 303 306 307 302 294 287 279 270 261 248 252 263 260 252 253 255 256 258 260 267 272 270 269 267 253 236 230 232 240 262 275 272 271 257 237 226 225 230 242 253 260 271 284 298 307 310 312 310 294 268 257 251 254 255 228 126
300 305 306 306 308 307 303 305 308 311 309 302 295 280 258 239 225 237 238 230 242 248 253 266 267 274 277 272 280 290 276 236 216 218 228 247 270 281 281 280 272 257 248 249 253 260 268 275 283 291 300 305 306 307 304 287 253 222 214 257 268 236 149
306 312 313 312 310 307 306 310 311 318 329 323 316 294 242 218 196 209 215 205 228 243 258 284 282 290 291 281 286 291 249 199 200 210 224 255 286 300 298 294 287 275 268 265 265 267 273 280 288 294 300 303 303 305 306 327 122 148 156 144 350 347 86
310 313 313 311 310 307 307 313 315 328 346 347 354 35 86 187 171 161 179 177 184 248 285 310 305 307 306 296 288 274 201 172 191 227 263 306 324 326 319 308 293 283 282 279 275 273 275 281 293 304 314 334 11 49 78 82 82 97 115 112 95 64 77
309 309 305 305 307 303 301 312 318 328 352 11 36 62 80 135 145 132 131 135 102 311 320 325 318 313 304 288 272 242 174 139 125 104 62 59 21 318 318 313 291 280 287 288 285 287 274 308 54 52 50 58 63 67 74 79 78 79 87 96 99 99 102
304 303 302 299 296 290 289 300 308 316 350 31 61 88 109 120 120 110 82 10 335 327 325 316 335 359 355 306 183 137 126 111 98 95 95 107 269 297 307 302 277 272 263 237 171 88 76 74 72 64 58 61 65 65 68 71 71 73 77 81 87 93 96
297 296 297 293 283 273 268 284 300 301 314 33 56 77 101 108 93 347 336 329 308 302 337 239 173 98 89 101 109 109 110 101 93 98 114 287 294 301 301 281 269 251 219 193 103 81 69 69 74 69 64 66 66 65 67 66 64 65 70 73 74 77 79
292 287 285 282 276 267 251 253 284 288 276 273 301 17 79 69 312 314 324 318 271 226 201 206 200 169 130 123 124 122 101 13 11 349 325 322 319 309 285 258 235 199 188 145 110 92 70 67 75 76 74 69 66 67 72 72 65 61 65 68 64 63 66
284 277 272 268 265 264 260 256 266 277 282 281 276 277 282 290 301 313 322 306 264 234 224 224 222 222 231 247 274 302 321 337 342 340 340 336 324 310 259 206 189 181 161 125 117 103 87 82 80 77 75 73 73 75 82 90 90 75 69 74 70 60 58
274 271 263 258 257 256 256 257 260 267 276 280 277 275 277 280 292 314 318 296 264 240 237 242 245 252 265 279 293 308 320 329 333 334 336 336 334 187 177 185 187 182 164 142 124 110 98 88 80 79 80 82 85 82 78 87 98 102 97 97 92 76 60
270 266 259 254 253 252 254 260 263 265 267 269 267 265 266 270 280 297 301 285 261 244 242 248 257 265 274 283 293 304 312 317 321 321 325 59 110 124 131 133 139 148 144 130 117 107 95 84 82 87 85 82 84 82 79 81 86 91 99 98 89 78 65
271 264 260 254 244 241 251 265 274 276 273 269 265 261 257 254 258 275 288 283 269 255 245 244 250 257 264 273 276 279 278 276 265 118 126 125 123 120 115 116 116 112 111 111 105 98 92 86 82 81 79 75 74 74 75 77 79 83 88 84 78 75 63
269 260 258 255 246 242 249 265 279 286 284 273 262 253 244 237 231 225 202 92 19 266 244 236 235 233 232 231 212 181 172 166 146 132 130 128 121 116 118 119 115 108 110 114 110 102 97 89 78 73 72 70 67 66 67 69 72 78 79 72 67 68 54
277 259 252 252 252 250 253 266 274 279 294 291 269 239 221 218 215 202 184 110 45 329 241 223 215 209 202 191 177 171 170 164 153 143 140 133 125 122 122 118 118 119 115 110 106 103 96 86 80 76 71 69 68 64 60 58 61 67 69 65 63 64 50
321 287 245 247 250 248 250 264 267 262 302 310 281 219 200 199 201 199 198 181 21 338 250 223 205 194 191 184 174 176 175 168 161 156 151 143 135 134 132 130 133 130 119 107 103 98 90 85 83 78 72 71 70 60 50 49 51 55 59 59 60 60 53
273 178 160 193 218 223 223 233 249 278 314 329 217 179 181 183 188 196 207 235 291 296 257 230 211 198 195 189 181 183 181 173 168 166 160 153 148 148 153 155 142 126 114 112 110 102 97 94 86 78 66 58 61 59 52 48 45 44 45 45 43 44 42
256 244 220 207 209 211 210 214 234 268 289 302 155 166 172 175 186 204 223 240 254 266 261 242 223 209 205 197 189 189 186 180 179 176 170 167 167 167 169 163 144 127 123 124 112 99 102 97 87 85 71 40 43 49 44 40 37 35 32 29 24 22 23
266 259 251 242 237 238 238 240 245 252 253 249 229 194 181 181 194 214 227 237 250 264 268 255 233 218 216 209 199 195 193 189 188 185 179 179 180 180 182 177 167 170 176 153 126 142 132 100 89 92 85 59 48 51 47 40 35 30 26 24 20 12 9
273 269 264 257 253 252 253 253 254 254 251 248 242 221 206 206 214 221 225 235 250 261 266 260 241 225 222 216 206 200 198 196 195 192 188 186 186 187 191 191 192 203 207 185 184 218 195 113 106 104 87 76 51 43 42 36 30 29 22 20 24 15 359